OBJECT S

基本信息
目录编号:
59067
目录名称:
OBJECT S
国际标识:
2024-039S
轨道中心:
EARTH
物体状态:
在轨
发射日期:
2024-02-29 UTC
国别:
(TBD)
轨道信息
数据来源: 国际轨道数据
星历时间: 2026-07-13T23:27:14+0800
半长轴: 6965.39km
偏心率: 0.0143008
轨道倾角: 95.389°
近地点辐角: 235.625°
升交点赤经: 253.165°
平近点角: 123.138°
近地点: 487.642km
远地点: 686.864km
周期: 96.422分钟
每日圈数: 14.934291
详细信息
发射场:
VOSTO
轨道高度:
LEO
数据来源:
AOE Integration Group
参考系:
TEME
时间系统:
UTC
历元类型:
SGP4
2D轨道图
3D轨道图
轨道高度分析图
轨道倾角分析图
轨道综合分析图
查看轨道综合分析图